Content
SEND FEEDBACK

Daily
Averages
Monthly
Summary
Canada

MONTREAL, QUEBEC


Home > North America > Canada > Quebec
Elevation: 35 meters     Latitude: 45 28N     Longitude: 073 45W

WEATHER
 
SELECT A DAY
Number of Records: 203,377;   Date Range: 1/1/95 - 12/18/14
 
SHARE

PRINT THIS DATA

[ ← Previous Day ]
WEATHER ALMANAC - 20 JANUARY, 2014
[ Next Day → ]
[ °F ]   °C
Weather ElementAverageHighLow
Temperature-12.7 °C-6 °C (12:20 am)-19 °C (10:00 pm)
Dewpoint-19.3 °C-11 °C (12:20 am)-26 °C (11:00 pm)
Humidity57.6 %85 % (7:00 am)36 % (1:00 pm)
Barometer1005.8 hPa1016.6 hPa (11:00 pm)996.3 hPa (12:20 am)
Wind Speed18 km/h27.8 km/h (12:20 am)
Wind Gust40.7 km/h (1:00 am)
Weather ElementAverage
Visibility20.1 km
Wind DirectionWNW (289.7 °)

Weather ElementTotal
Precipitation---
Heating Degree Days30.8 (Base 18.3)
Averaged from 30 records on 20 January, 2014
WEATHER CONDITIONS BREAKOUT
WIND DIRECTION BREAKOUT
WEATHER BY HOUR - 20 JANUARY, 2014
[ °F ]   °C
Local TimeTemperatureDewpointHumidityBarometerVisibilityWind DirectionWind SpeedGust SpeedPrecipitationEventsConditions
12:20 AM-6 °C-11 °C68 %996.3 hPa24.1 kmWNW (290°)27.8 km/hSnowLow Drifting Snow
1:00 AM-6.7 °C-13.3 °C44 %997 hPa24.1 kmWNW (290°)27.8 km/hSnowLight Snow Showers
1:00 AM-6 °C-14 °C54 %997 hPa24.1 kmWNW (290°)25.9 km/h40.7 km/hSnowLow Drifting Snow
2:00 AM-7 °C-14 °C58 %997 hPa24.1 kmNW (310°)18.5 km/h35.2 km/hSnowLow Drifting Snow
3:00 AM-8 °C-15 °C58 %999 hPa24.1 kmWNW (290°)20.4 km/hSnowLight Snow Showers
4:00 AM-9 °C-15 °C62 %1000 hPa8 kmWest (280°)18.5 km/hSnowLight Snow Showers
5:00 AM-10 °C-17 °C57 %1000.7 hPa8 kmNW (310°)9.3 km/hSnowLight Snow Showers
6:00 AM-11 °C-14 °C79 %1001.7 hPa6.4 kmWNW (290°)9.3 km/hSnowLight Snow
7:00 AM-11.7 °C-14.4 °C71 %1002.7 hPa1.6 kmWest (280°)14.8 km/hSnowLight Snow
7:00 AM-12 °C-14 °C85 %1002.7 hPa2.4 kmWNW (290°)16.7 km/hSnowLight Snow
8:00 AM-13 °C-15 °C85 %1003.7 hPa2.9 kmNW (320°)13 km/hSnowLight Snow
8:33 AM-13 °C-16 °C79 %1004.1 hPa19.3 kmNW (320°)16.7 km/hSnowLight Snow
9:00 AM-13 °C-18 °C67 %1004.4 hPa24.1 kmWNW (300°)16.7 km/hSnowLight Snow
10:00 AM-13 °C-21 °C52 %1005.4 hPa24.1 kmNNW (330°)13 km/hSnowLight Snow
10:45 AM-13 °C-22 °C48 %1005.8 hPa24.1 kmWNW (300°)13 km/hOvercast
11:00 AM-13 °C-21 °C52 %1005.4 hPa24.1 kmWest (280°)13 km/hOvercast
12:00 PM-13 °C-22 °C48 %1004.7 hPa24.1 kmNW (320°)7.4 km/hOvercast
1:00 PM-13.3 °C-21.1 °C36 %1004.7 hPa24.1 kmWNW (290°)18.5 km/hPartly Cloudy
1:00 PM-13 °C-21 °C52 %1004.7 hPa24.1 kmWNW (290°)16.7 km/hOvercast
2:00 PM-13 °C-21 °C52 %1006.1 hPa24.1 kmWest (270°)18.5 km/hOvercast
3:00 PM-14 °C-22 °C52 %1007.1 hPa24.1 kmWest (270°)22.2 km/hMostly Cloudy
4:00 PM-15 °C-23 °C52 %1008.8 hPa24.1 kmWest (270°)22.2 km/hMostly Cloudy
5:00 PM-15 °C-23 °C52 %1009.8 hPa24.1 kmWest (270°)20.4 km/h31.5 km/hScattered Clouds
6:00 PM-15 °C-23 °C52 %1011.5 hPa24.1 kmWest (260°)18.5 km/hScattered Clouds
7:00 PM-16.1 °C-23.9 °C36 %1012.9 hPa24.1 kmWest (280°)20.4 km/hClear
7:00 PM-16 °C-24 °C51 %1012.9 hPa24.1 kmWest (280°)18.5 km/h31.5 km/hPartly Cloudy
8:00 PM-17 °C-24 °C56 %1014.6 hPa24.1 kmWest (280°)24.1 km/hPartly Cloudy
9:00 PM-18 °C-25 °C55 %1015.2 hPa24.1 kmWest (280°)16.7 km/hPartly Cloudy
10:00 PM-19 °C-25 °C60 %1015.9 hPa24.1 kmWest (280°)22.2 km/hClear
11:00 PM-19 °C-26 °C55 %1016.6 hPa24.1 kmWest (280°)20.4 km/hClear
Hourly data recorded from CYUL, located 0 kilometers away from Montreal, Quebec







STORIES FROM OUR PARTNERS